Regional Weather Roundup
Issued by NWS

Home | Current Version | Previous Version | Graphics & Text | Print | Product List | Glossary On
Versions: 1 2 3 4 5 6 7 8 9 10 11 12 13 14 15 16 17 18 19 20 21 22 23 24 25 26 27 28 29 30 31 32 33 34 35 36 37 38 39 40 41 42 43 44 45 46 47 48 49 50
000
ASUS45 KTFX 281519
RWRMT
MONTANA HOURLY WEATHER ROUNDUP
NATIONAL WEATHER SERVICE GREAT FALLS MT
919 AM MDT SAT MAR 28 2015

NOTE: "FAIR" INDICATES FEW OR NO CLOUDS BELOW 12000 FEET WITH NO
SIGNIFICANT WEATHER AND/OR OBSTRUCTIONS TO VISIBILITY.

* THESE STATIONS ARE NOT UNDER NWS QUALITY CONTROL. THEY DO NOT
   REPORT WEATHER SUCH AS PRECIPITATION OR FOG.

MTZ001>007-043-281600-
WEST OF THE DIVIDE
CITY           SKY/WX    TMP DP  RH WIND       PRES   REMARKS
KALISPELL      CLOUDY    48  41  77 S15       29.85R
MISSOULA       LGT RAIN  46  36  68 W21G29    29.98R
BUTTE          PTSUNNY   41  30  65 VRB5      29.83F
MULLAN PASS    LGT SNOW  30  30 100 SW10G23   29.96R VSB M1/4 WCI  21
* ESSEX        N/A       42  41  96 N/A        N/A
* EUREKA APT   CLOUDY    52  37  57 S9        29.81R
* HAMILTON APT CLOUDY    46  34  63 W13       30.00R
* LIBBY APT    CLOUDY    45  39  80 S9        29.90R
* LINCOLN      N/A       44  37  76 S6G11      N/A
* LOOKOUT PASS N/A       36  33  89 SE13G20    N/A   WCI  27
* POLSON       N/A       44  41  89 S3G12      N/A
* RONAN APT    CLOUDY    48  43  83 S9         N/A
* SEELEY LAKE  N/A       40  37  89 NE2G8      N/A
* THOMP F APT  CLOUDY    42  29  60 NE9G14     N/A
$$

MTZ008-052>055-281600-
SOUTHWEST MONTANA
CITY           SKY/WX    TMP DP  RH WIND       PRES   REMARKS
BOZEMAN        SUNNY     52  36  55 CALM      29.79F
DILLON         SUNNY     55  30  39 SW17      29.85F
* W YELLOWSTON SUNNY     31  29  92 S2         N/A
* THREE FORKS  PTCLDY    55  34  45 SW9        N/A
* TWIN BRIDGES PTCLDY    46  30  54 N/A        N/A
* BOULDER HILL N/A       46  27  48 S8         N/A
* HOMESTAKE PS N/A       50  27  41 S3         N/A
* MONIDA PASS  N/A       42  30  63 SE21G27    N/A
* RAYNOLDS PAS N/A       37  21  52 SE14       N/A   WCI  28
* WHITEHALL    N/A       49  33  54 SW7G16     N/A
* WISE RIVER   N/A       30  28  92 E5         N/A   WCI  25
$$

MTZ009>010-012-014-046-048-049-054-281600-
EAST SLOPES AND CENTRAL MONTANA
CITY           SKY/WX    TMP DP  RH WIND       PRES   REMARKS
CUT BANK       PTSUNNY   50  41  71 W30G39    29.66S
GREAT FALLS    PTCLDY    61  34  36 SW18      29.65R
HELENA         PTSUNNY   48  36  63 NW23G29   29.72F
MALMSTROM AFB  PTCLDY    61  32  34 SW22G31   29.64F
* DEARBORN     N/A       61  33  35 S14G24     N/A
* EAST GLACIER N/A       44  35  71 W21G35     N/A
* MONARCH      N/A       55  27  34 S4G9       N/A
* PENDROY      N/A       50  40  69 NW8G14     N/A
* ROGERS PASS  N/A       44  36  74 SE17G27    N/A
* SAINT MARY   N/A       44  39  83 S12G28     N/A
* WHITE SULPH  N/A       61  27  27 SW13G40    N/A
$$

MTZ011-013-016-021-035-040-045-047-050-051-281600-
NORTH CENTRAL MONTANA
CITY           SKY/WX    TMP DP  RH WIND       PRES   REMARKS
HAVRE          CLOUDY    52  37  57 SW8       29.56F
LEWISTOWN      PTCLDY    66  34  31 SW17      29.71F
* N BAR RANCH  SUNNY     63  32  31 SW9       29.75F
* CHINOOK      PTSUNNY   45  36  71 E5        29.58F
* FORT BENTON  PTSUNNY   52  37  57 CALM      29.61F
* CHESTER      N/A       44  36  74 N/A        N/A
* DENTON       N/A       61  36  39 S15G20     N/A
* GEYSER       N/A       62  32  32 SW19G27    N/A
* JUDITH GAP   N/A       54  37  53 SE4        N/A
* LOMA         N/A       42  36  79 E4         N/A
$$

MTZ017>020-022>027-061-062-281600-
NORTHEAST MONTANA
CITY           SKY/WX    TMP DP  RH WIND       PRES   REMARKS
GLASGOW        PTCLDY    45  36  71 SE14      29.63F
GLENDIVE       SUNNY     48  37  66 S14       29.73F
JORDAN         SUNNY     54  37  53 CALM      29.67F
SIDNEY         SUNNY     46  37  71 S16       29.70F
WOLF POINT     SUNNY     43  37  79 E3        29.67F
* BEAVER HILL  N/A       55  34  45 S19G24     N/A
* CIRCLE       N/A       53  38  57 SW6        N/A
* LINDSAY DVD  N/A       55  36  49 S12G19     N/A
* NAVAJO       N/A       45  37  74 S11G16     N/A
* PLENTYWOOD A PTCLDY    43  37  79 SE14      29.66F
* POPLAR APT   SUNNY     46  39  77 CALM      29.67F
* SACO         N/A       42  37  83 NE7        N/A
$$

MTZ028>042-056>058-281600-
SOUTHCENTRAL AND SOUTHEAST MONTANA
CITY           SKY/WX    TMP DP  RH WIND       PRES   REMARKS
BAKER          SUNNY     52  36  55 SE7       29.79F
BILLINGS       PTCLDY    61  34  36 W15       29.76F
LIVINGSTON     SUNNY     61  30  31 SW30G43   29.77F
MILES CITY     SUNNY     46  34  63 SE9       29.75F
* BIG TIMBER A SUNNY     55  34  45 E5        29.78F
* FORSYTH APT  SUNNY     52  37  57 CALM      29.73F
* LAUREL APT   PTCLDY    54  30  40 SW13G18    N/A
* ROUNDUP APT  SUNNY     45  30  56 N/A        N/A
* ALZADA       N/A       48  34  59 E4         N/A
* HYSHAM       N/A       59  30  33 W4G9       N/A
* LAME DEER    N/A       59  33  38 SW7        N/A
* REED POINT   N/A       41  36  82 E1         N/A
* ROSCOE HILL  N/A       60  18  19 S12G21     N/A
$$

REGIONAL REPORTS...DAKOTAS
CITY           SKY/WX    TMP DP  RH WIND       PRES   REMARKS
WILLISTON      SUNNY     46  36  68 S8        29.72F
DICKINSON      SUNNY     48  36  63 S20G25    29.78F
BEACH          SUNNY     48  37  66 S15G21    29.77F
CROSBY         SUNNY     45  39  80 S20G25    29.68F
TIOGA          SUNNY     43  41  93 S14G20    29.75F
WATFORD CITY   SUNNY     48  37  66 S13       29.72F
BISMARCK       FOG       30  30 100 SE12      29.92F VSB 2    WCI  20
GRAND FORKS    PTSUNNY   34  25  70 S18G25    30.05F WCI  23
FARGO          SUNNY     36  25  64 S20       30.10F WCI  25
BUFFALO SD     SUNNY     48  36  63 S14       29.78F
RAPID CITY     SUNNY     48  36  63 SE6       29.88F
$$

REGIONAL REPORTS...WYOMING/IDAHO/WASHINGTON
CITY           SKY/WX    TMP DP  RH WIND       PRES   REMARKS
GILLETTE       SUNNY     61  34  36 SW12      29.89F
SHERIDAN       SUNNY     63  37  38 CALM      29.84F
CODY           PTCLDY    61  32  34 SE12      29.89F
YELLOWSTONE LA SUNNY     32  28  85 CALM      30.10F
SALMON         CLOUDY    43  36  76 CALM      29.87S
MULLAN PASS    LGT SNOW  30  30 100 SW10G23   29.96S VSB M1/4 WCI  21
SAND POINT     CLOUDY    45  39  80 SW13G18   29.94R
SPOKANE        PTSUNNY   45  36  71 SW33G41   30.00R
$$

REGIONAL REPORTS...ALBERTA
CITY           SKY/WX    TMP DP  RH WIND       PRES   REMARKS
CALGARY        LGT RAIN  46  34  63 N13       29.60R
LETHBRIDGE     PTSUNNY   52  39  61 SW16      29.59S
MEDICINE HAT   CLOUDY    54  41  62 SW8       29.53S
EDMONTON       CLOUDY    39  37  93 NW8       29.62R WCI  33
WATERTON GATE  N/A       46  36  68 SW28G48    N/A
CARDSTON       N/A       52  36  55 W12G22     N/A
MILK RIVER     N/A       54  39  57 W23G31     N/A
$$

REGIONAL REPORTS...SASKATCHEWAN
CITY           SKY/WX    TMP DP  RH WIND       PRES   REMARKS
SWIFT CURRENT  SUNNY     52  37  57 SW14G20   29.53F
REGINA         PTSUNNY   36  34  92 SE16G24   29.59F WCI  26
VAL MARIE      N/A       43  37  79 NE1        N/A
ASSINIBOIA     N/A       50  39  66 SW6        N/A
CORONACH       N/A       45  39  80 S9         N/A

$$



USA.gov is the U.S. government's official web portal to all federal, state and local government web resources and services.